Time,TemperatureF,DewpointF,PressureIn,WindDirection,WindDirectionDegrees,WindSpeedMPH,WindSpeedGustMPH,Humidity,HourlyPrecipIn,Conditions,Clouds,dailyrainin,SoftwareType,DateUTC
2013-02-07 00:00:00,67.8,64.1,30.01,East,94,0.0,0.0,88,0.00,,---,0.00,VWS V14.01,2013-02-07 05:00:00,
2013-02-07 00:01:00,67.8,64.1,30.01,East,94,0.0,0.0,88,0.00,,---,0.00,VWS V14.01,2013-02-07 05:01:00,
2013-02-07 00:03:00,67.6,63.9,30.01,East,94,0.0,0.0,88,0.00,,---,0.00,VWS V14.01,2013-02-07 05:03:00,
2013-02-07 00:05:00,67.6,64.2,30.01,East,94,0.0,0.0,89,0.00,,---,0.00,VWS V14.01,2013-02-07 05:05:00,
2013-02-07 00:10:00,67.4,64.1,30.01,East,94,0.0,2.0,89,0.00,,---,0.00,VWS V14.01,2013-02-07 05:10:00,
2013-02-07 00:15:00,67.4,64.1,30.01,East,94,0.0,2.0,89,0.00,,---,0.00,VWS V14.01,2013-02-07 05:15:00,
2013-02-07 00:20:00,67.3,64.0,30.00,East,94,0.0,2.0,89,0.00,,---,0.00,VWS V14.01,2013-02-07 05:20:00,
2013-02-07 00:25:00,67.3,64.3,30.00,East,94,2.0,2.0,90,0.00,,---,0.00,VWS V14.01,2013-02-07 05:25:00,
2013-02-07 00:30:00,67.4,64.4,30.00,East,94,1.0,4.0,90,0.00,,---,0.00,VWS V14.01,2013-02-07 05:30:00,
2013-02-07 00:35:00,67.4,64.1,30.00,East,94,2.0,2.0,89,0.00,,---,0.00,VWS V14.01,2013-02-07 05:35:00,
2013-02-07 00:40:00,67.6,64.2,30.00,East,94,0.0,2.0,89,0.00,,---,0.00,VWS V14.01,2013-02-07 05:40:00,
2013-02-07 00:45:00,67.6,64.2,30.00,East,94,0.0,2.0,89,0.00,,---,0.00,VWS V14.01,2013-02-07 05:45:00,
2013-02-07 00:51:00,67.6,64.2,30.00,East,94,0.0,2.0,89,0.00,,---,0.00,VWS V14.01,2013-02-07 05:51:00,
2013-02-07 00:56:00,67.4,64.1,30.00,East,94,0.0,2.0,89,0.00,,---,0.00,VWS V14.01,2013-02-07 05:56:00,
2013-02-07 01:01:00,67.4,63.7,30.00,East,94,0.0,2.0,88,0.00,,---,0.00,VWS V14.01,2013-02-07 06:01:00,
2013-02-07 01:06:00,67.4,63.7,30.00,East,94,0.0,0.0,88,0.00,,---,0.00,VWS V14.01,2013-02-07 06:06:00,
2013-02-07 01:11:00,67.3,63.6,30.00,East,94,0.0,0.0,88,0.00,,---,0.00,VWS V14.01,2013-02-07 06:11:00,
2013-02-07 01:16:00,67.3,63.6,30.00,East,94,0.0,0.0,88,0.00,,---,0.00,VWS V14.01,2013-02-07 06:16:00,
2013-02-07 01:21:00,67.3,63.6,30.00,East,94,0.0,0.0,88,0.00,,---,0.00,VWS V14.01,2013-02-07 06:21:00,
2013-02-07 01:26:00,67.1,63.8,30.00,East,94,0.0,0.0,89,0.00,,---,0.00,VWS V14.01,2013-02-07 06:26:00,
2013-02-07 01:31:00,67.1,63.8,30.00,East,94,0.0,0.0,89,0.00,,---,0.00,VWS V14.01,2013-02-07 06:31:00,
2013-02-07 01:36:00,66.9,63.6,30.00,East,94,0.0,0.0,89,0.00,,---,0.00,VWS V14.01,2013-02-07 06:36:00,
2013-02-07 01:41:00,66.8,63.5,30.00,East,94,0.0,0.0,89,0.00,,---,0.00,VWS V14.01,2013-02-07 06:41:00,
2013-02-07 01:46:00,66.6,63.6,29.99,East,94,0.0,0.0,90,0.00,,---,0.00,VWS V14.01,2013-02-07 06:46:00,
2013-02-07 01:51:00,66.4,63.4,29.99,East,94,0.0,0.0,90,0.00,,---,0.00,VWS V14.01,2013-02-07 06:51:00,
2013-02-07 01:56:00,66.3,63.3,29.99,East,94,0.0,0.0,90,0.00,,---,0.00,VWS V14.01,2013-02-07 06:56:00,
2013-02-07 02:01:00,66.1,63.1,29.99,East,94,0.0,0.0,90,0.00,,---,0.00,VWS V14.01,2013-02-07 07:01:00,
2013-02-07 02:06:00,66.0,63.0,29.99,East,94,0.0,0.0,90,0.00,,---,0.00,VWS V14.01,2013-02-07 07:06:00,
2013-02-07 02:12:00,65.8,63.1,29.99,East,94,0.0,0.0,91,0.00,,---,0.00,VWS V14.01,2013-02-07 07:12:00,
2013-02-07 02:17:00,65.6,62.9,29.99,East,94,0.0,0.0,91,0.00,,---,0.00,VWS V14.01,2013-02-07 07:17:00,
2013-02-07 02:22:00,65.5,63.1,29.99,East,94,0.0,0.0,92,0.00,,---,0.00,VWS V14.01,2013-02-07 07:22:00,
2013-02-07 02:27:00,65.3,62.9,29.99,East,94,0.0,0.0,92,0.00,,---,0.00,VWS V14.01,2013-02-07 07:27:00,
2013-02-07 02:32:00,65.2,62.8,29.99,East,94,0.0,0.0,92,0.00,,---,0.00,VWS V14.01,2013-02-07 07:32:00,
2013-02-07 02:37:00,65.0,62.6,29.99,East,94,0.0,0.0,92,0.00,,---,0.00,VWS V14.01,2013-02-07 07:37:00,
2013-02-07 02:42:00,64.8,62.4,29.99,East,94,0.0,0.0,92,0.00,,---,0.00,VWS V14.01,2013-02-07 07:42:00,
2013-02-07 02:47:00,64.7,62.3,29.99,East,94,0.0,0.0,92,0.00,,---,0.00,VWS V14.01,2013-02-07 07:47:00,
2013-02-07 02:52:00,64.5,62.1,29.99,East,94,0.0,0.0,92,0.00,,---,0.00,VWS V14.01,2013-02-07 07:52:00,
2013-02-07 02:57:00,64.3,62.2,29.99,East,94,0.0,0.0,93,0.00,,---,0.00,VWS V14.01,2013-02-07 07:57:00,
2013-02-07 03:02:00,64.3,62.2,29.98,East,94,0.0,0.0,93,0.00,,---,0.00,VWS V14.01,2013-02-07 08:02:00,
2013-02-07 03:08:00,64.2,62.1,29.98,East,94,0.0,0.0,93,0.00,,---,0.00,VWS V14.01,2013-02-07 08:08:00,
2013-02-07 03:13:00,64.2,62.4,29.98,East,94,0.0,0.0,94,0.00,,---,0.00,VWS V14.01,2013-02-07 08:13:00,
2013-02-07 03:18:00,64.0,62.2,29.98,East,94,0.0,0.0,94,0.00,,---,0.00,VWS V14.01,2013-02-07 08:18:00,
2013-02-07 03:23:00,64.0,62.5,29.98,East,94,0.0,0.0,95,0.00,,---,0.00,VWS V14.01,2013-02-07 08:23:00,
2013-02-07 03:28:00,64.0,62.5,29.98,East,94,0.0,0.0,95,0.00,,---,0.00,VWS V14.01,2013-02-07 08:28:00,
2013-02-07 03:33:00,63.9,62.4,29.98,East,94,0.0,0.0,95,0.00,,---,0.00,VWS V14.01,2013-02-07 08:33:00,
2013-02-07 03:38:00,63.9,62.4,29.98,East,94,0.0,0.0,95,0.00,,---,0.00,VWS V14.01,2013-02-07 08:38:00,
2013-02-07 03:43:00,63.7,62.5,29.98,East,94,0.0,0.0,96,0.00,,---,0.00,VWS V14.01,2013-02-07 08:43:00,
2013-02-07 03:48:00,63.7,62.5,29.97,East,94,0.0,0.0,96,0.00,,---,0.00,VWS V14.01,2013-02-07 08:48:00,
2013-02-07 03:53:00,63.7,62.5,29.97,East,94,0.0,0.0,96,0.00,,---,0.00,VWS V14.01,2013-02-07 08:53:00,
2013-02-07 03:58:00,63.5,62.3,29.97,East,94,0.0,0.0,96,0.00,,---,0.00,VWS V14.01,2013-02-07 08:58:00,
2013-02-07 04:03:00,63.5,62.6,29.97,East,94,0.0,0.0,97,0.00,,---,0.00,VWS V14.01,2013-02-07 09:03:00,
2013-02-07 04:09:00,63.4,62.5,29.97,East,94,0.0,0.0,97,0.00,,---,0.00,VWS V14.01,2013-02-07 09:09:00,
2013-02-07 04:14:00,63.4,62.5,29.97,East,94,0.0,0.0,97,0.00,,---,0.00,VWS V14.01,2013-02-07 09:14:00,
2013-02-07 04:19:00,63.2,62.3,29.97,East,94,0.0,0.0,97,0.00,,---,0.00,VWS V14.01,2013-02-07 09:19:00,
2013-02-07 04:24:00,63.1,62.2,29.97,East,94,0.0,0.0,97,0.00,,---,0.00,VWS V14.01,2013-02-07 09:24:00,
2013-02-07 04:29:00,63.1,62.2,29.97,East,94,0.0,0.0,97,0.00,,---,0.00,VWS V14.01,2013-02-07 09:29:00,
2013-02-07 04:34:00,63.1,62.5,29.97,East,94,0.0,0.0,98,0.00,,---,0.00,VWS V14.01,2013-02-07 09:34:00,
2013-02-07 04:39:00,62.9,62.3,29.97,East,94,0.0,0.0,98,0.00,,---,0.00,VWS V14.01,2013-02-07 09:39:00,
2013-02-07 04:44:00,62.9,62.3,29.97,East,94,0.0,0.0,98,0.00,,---,0.00,VWS V14.01,2013-02-07 09:44:00,
2013-02-07 04:49:00,62.7,62.1,29.97,East,94,0.0,0.0,98,0.00,,---,0.00,VWS V14.01,2013-02-07 09:49:00,
2013-02-07 04:54:00,62.7,62.1,29.97,East,94,0.0,0.0,98,0.00,,---,0.00,VWS V14.01,2013-02-07 09:54:00,
2013-02-07 05:00:00,62.6,62.0,29.97,East,94,0.0,0.0,98,0.00,,---,0.00,VWS V14.01,2013-02-07 10:00:00,
2013-02-07 05:05:00,62.6,62.0,29.97,East,94,0.0,0.0,98,0.00,,---,0.00,VWS V14.01,2013-02-07 10:05:00,
2013-02-07 05:10:00,62.4,61.8,29.97,East,94,0.0,0.0,98,0.00,,---,0.00,VWS V14.01,2013-02-07 10:10:00,
2013-02-07 05:15:00,62.4,61.8,29.97,East,94,0.0,0.0,98,0.00,,---,0.00,VWS V14.01,2013-02-07 10:15:00,
2013-02-07 05:20:00,62.4,62.1,29.97,East,94,0.0,0.0,99,0.00,,---,0.00,VWS V14.01,2013-02-07 10:20:00,
2013-02-07 05:25:00,62.4,62.1,29.97,East,94,0.0,0.0,99,0.00,,---,0.00,VWS V14.01,2013-02-07 10:25:00,
2013-02-07 05:30:00,62.3,62.0,29.97,East,94,0.0,0.0,99,0.00,,---,0.00,VWS V14.01,2013-02-07 10:30:00,
2013-02-07 05:35:00,62.3,62.0,29.97,East,94,0.0,0.0,99,0.00,,---,0.00,VWS V14.01,2013-02-07 10:35:00,
2013-02-07 05:40:00,62.1,61.8,29.97,East,94,0.0,0.0,99,0.00,,---,0.00,VWS V14.01,2013-02-07 10:40:00,
2013-02-07 05:45:00,62.1,61.8,29.97,East,94,0.0,0.0,99,0.00,,---,0.00,VWS V14.01,2013-02-07 10:45:00,
2013-02-07 05:51:00,62.0,61.7,29.97,East,94,0.0,0.0,99,0.00,,---,0.00,VWS V14.01,2013-02-07 10:51:00,
2013-02-07 05:56:00,62.0,61.7,29.97,East,94,0.0,0.0,99,0.00,,---,0.00,VWS V14.01,2013-02-07 10:56:00,
2013-02-07 06:01:00,62.0,61.7,29.97,East,94,0.0,0.0,99,0.00,,---,0.00,VWS V14.01,2013-02-07 11:01:00,
2013-02-07 06:06:00,62.0,62.0,29.97,East,94,0.0,0.0,100,0.00,,---,0.00,VWS V14.01,2013-02-07 11:06:00,
2013-02-07 06:11:00,61.8,61.8,29.97,East,94,0.0,0.0,100,0.00,,---,0.00,VWS V14.01,2013-02-07 11:11:00,
2013-02-07 06:16:00,61.8,61.8,29.97,East,94,0.0,0.0,100,0.00,,---,0.00,VWS V14.01,2013-02-07 11:16:00,
2013-02-07 06:21:00,61.8,61.8,29.97,East,94,0.0,0.0,100,0.00,,---,0.00,VWS V14.01,2013-02-07 11:21:00,
2013-02-07 06:26:00,61.8,61.8,29.97,East,94,0.0,0.0,100,0.00,,---,0.00,VWS V14.01,2013-02-07 11:26:00,
2013-02-07 06:31:00,61.8,61.8,29.97,East,94,0.0,0.0,100,0.00,,---,0.00,VWS V14.01,2013-02-07 11:31:00,
2013-02-07 06:36:00,61.8,61.8,29.97,East,94,0.0,0.0,100,0.00,,---,0.00,VWS V14.01,2013-02-07 11:36:00,
2013-02-07 06:42:00,61.8,61.8,29.97,East,94,0.0,0.0,100,0.00,,---,0.00,VWS V14.01,2013-02-07 11:42:00,
2013-02-07 06:47:00,61.8,61.8,29.98,East,94,0.0,0.0,100,0.00,,---,0.00,VWS V14.01,2013-02-07 11:47:00,
2013-02-07 06:52:00,61.8,61.8,29.98,East,94,0.0,0.0,100,0.00,,---,0.00,VWS V14.01,2013-02-07 11:52:00,
2013-02-07 06:57:00,62.0,62.0,29.98,East,94,0.0,0.0,100,0.00,,---,0.00,VWS V14.01,2013-02-07 11:57:00,
2013-02-07 07:02:00,62.0,62.0,29.99,East,94,0.0,0.0,100,0.00,,---,0.00,VWS V14.01,2013-02-07 12:02:00,
2013-02-07 07:07:00,61.8,61.8,29.99,East,94,0.0,0.0,100,0.00,,---,0.00,VWS V14.01,2013-02-07 12:07:00,
2013-02-07 07:12:00,61.8,61.8,29.99,East,94,0.0,0.0,100,0.00,,---,0.00,VWS V14.01,2013-02-07 12:12:00,
2013-02-07 07:18:00,61.6,61.6,29.99,East,94,0.0,0.0,100,0.00,,---,0.00,VWS V14.01,2013-02-07 12:18:00,
2013-02-07 07:23:00,61.6,61.6,29.99,East,94,0.0,0.0,100,0.00,,---,0.00,VWS V14.01,2013-02-07 12:23:00,
2013-02-07 07:28:00,61.6,61.6,29.99,East,94,0.0,0.0,100,0.00,,---,0.00,VWS V14.01,2013-02-07 12:28:00,
2013-02-07 07:33:00,61.6,61.6,29.99,East,94,0.0,0.0,100,0.00,,---,0.00,VWS V14.01,2013-02-07 12:33:00,
2013-02-07 07:38:00,61.8,61.8,29.99,East,94,0.0,0.0,100,0.00,,---,0.00,VWS V14.01,2013-02-07 12:38:00,
2013-02-07 07:43:00,62.7,62.7,29.99,East,94,0.0,0.0,100,0.00,,---,0.00,VWS V14.01,2013-02-07 12:43:00,
2013-02-07 07:48:00,63.2,63.2,29.99,East,94,0.0,0.0,100,0.00,,---,0.00,VWS V14.01,2013-02-07 12:48:00,
2013-02-07 07:53:00,63.9,63.9,29.99,East,94,0.0,0.0,100,0.00,,---,0.00,VWS V14.01,2013-02-07 12:53:00,
2013-02-07 07:58:00,64.3,64.3,29.99,East,94,0.0,0.0,100,0.00,,---,0.00,VWS V14.01,2013-02-07 12:58:00,
2013-02-07 08:03:00,65.0,65.0,30.00,East,94,0.0,0.0,100,0.00,,---,0.00,VWS V14.01,2013-02-07 13:03:00,
2013-02-07 08:08:00,65.6,65.6,30.00,East,94,0.0,0.0,100,0.00,,---,0.00,VWS V14.01,2013-02-07 13:08:00,
2013-02-07 08:13:00,66.1,66.1,30.00,East,94,0.0,0.0,100,0.00,,---,0.00,VWS V14.01,2013-02-07 13:13:00,
2013-02-07 08:18:00,66.8,66.8,30.00,East,94,0.0,0.0,100,0.00,,---,0.00,VWS V14.01,2013-02-07 13:18:00,
2013-02-07 08:23:00,67.8,67.2,30.00,East,94,0.0,0.0,98,0.00,,---,0.00,VWS V14.01,2013-02-07 13:23:00,
2013-02-07 08:29:00,68.8,67.3,30.00,East,94,0.0,0.0,95,0.00,,---,0.00,VWS V14.01,2013-02-07 13:29:00,
2013-02-07 08:34:00,69.3,67.2,30.00,East,94,0.0,0.0,93,0.00,,---,0.00,VWS V14.01,2013-02-07 13:34:00,
2013-02-07 08:39:00,69.8,67.4,30.00,East,94,0.0,0.0,92,0.00,,---,0.00,VWS V14.01,2013-02-07 13:39:00,
2013-02-07 08:44:00,70.6,67.2,30.00,East,94,0.0,0.0,89,0.00,,---,0.00,VWS V14.01,2013-02-07 13:44:00,
2013-02-07 08:49:00,71.8,67.4,30.00,East,94,0.0,0.0,86,0.00,,---,0.00,VWS V14.01,2013-02-07 13:49:00,
2013-02-07 08:54:00,72.8,67.3,30.00,East,94,0.0,1.0,83,0.00,,---,0.00,VWS V14.01,2013-02-07 13:54:00,
2013-02-07 08:59:00,74.0,67.8,30.00,East,94,0.0,2.0,81,0.00,,---,0.00,VWS V14.01,2013-02-07 13:59:00,
2013-02-07 09:04:00,74.4,67.8,30.00,East,94,0.0,0.0,80,0.00,,---,0.00,VWS V14.01,2013-02-07 14:04:00,
2013-02-07 09:09:00,74.9,67.2,30.00,East,94,0.0,0.0,77,0.00,,---,0.00,VWS V14.01,2013-02-07 14:09:00,
2013-02-07 09:14:00,75.1,67.0,30.00,East,94,0.0,1.0,76,0.00,,---,0.00,VWS V14.01,2013-02-07 14:14:00,
2013-02-07 09:19:00,75.6,66.3,30.00,East,94,0.0,1.0,73,0.00,,---,0.00,VWS V14.01,2013-02-07 14:19:00,
2013-02-07 09:24:00,76.0,67.1,30.00,East,94,4.0,4.0,74,0.00,,---,0.00,VWS V14.01,2013-02-07 14:24:00,
2013-02-07 09:29:00,77.0,65.6,30.00,East,97,3.0,7.0,68,0.00,,---,0.00,VWS V14.01,2013-02-07 14:29:00,
2013-02-07 09:35:00,77.9,66.1,30.00,ESE,103,2.0,7.0,67,0.00,,---,0.00,VWS V14.01,2013-02-07 14:35:00,
2013-02-07 09:40:00,78.3,66.0,30.00,East,98,0.0,7.0,66,0.00,,---,0.00,VWS V14.01,2013-02-07 14:40:00,
2013-02-07 09:45:00,77.6,65.8,30.00,East,101,1.0,7.0,67,0.00,,---,0.00,VWS V14.01,2013-02-07 14:45:00,
2013-02-07 09:50:00,77.0,66.1,30.00,East,101,3.0,7.0,69,0.00,,---,0.00,VWS V14.01,2013-02-07 14:50:00,
2013-02-07 09:55:00,78.6,65.9,30.00,ESE,104,3.0,7.0,65,0.00,,---,0.00,VWS V14.01,2013-02-07 14:55:00,
2013-02-07 10:00:00,78.1,65.8,30.00,ESE,110,2.0,10.0,66,0.00,,---,0.00,VWS V14.01,2013-02-07 15:00:00,
2013-02-07 10:05:00,77.2,65.8,30.01,ESE,110,2.0,5.0,68,0.00,,---,0.00,VWS V14.01,2013-02-07 15:05:00,
2013-02-07 10:10:00,76.7,66.2,30.01,ESE,111,5.0,5.0,70,0.00,,---,0.00,VWS V14.01,2013-02-07 15:10:00,
2013-02-07 10:15:00,77.7,66.3,30.01,ESE,111,3.0,5.0,68,0.00,,---,0.00,VWS V14.01,2013-02-07 15:15:00,
2013-02-07 10:20:00,79.0,67.1,30.01,ESE,119,1.0,9.0,67,0.00,,---,0.00,VWS V14.01,2013-02-07 15:20:00,
2013-02-07 10:25:00,79.6,66.4,30.01,ESE,112,5.0,9.0,64,0.00,,---,0.00,VWS V14.01,2013-02-07 15:25:00,
2013-02-07 10:30:00,79.8,66.6,30.01,ESE,113,1.0,9.0,64,0.00,,---,0.00,VWS V14.01,2013-02-07 15:30:00,
2013-02-07 10:35:00,80.9,66.2,30.00,East,91,3.0,5.0,61,0.00,,---,0.00,VWS V14.01,2013-02-07 15:35:00,
2013-02-07 10:40:00,79.9,65.7,30.00,ESE,111,5.0,9.0,62,0.00,,---,0.00,VWS V14.01,2013-02-07 15:40:00,
2013-02-07 10:46:00,79.8,66.1,30.00,East,95,5.0,10.0,63,0.00,,---,0.00,VWS V14.01,2013-02-07 15:46:00,
2013-02-07 10:51:00,79.8,66.1,30.00,East,95,1.0,10.0,63,0.00,,---,0.00,VWS V14.01,2013-02-07 15:51:00,
2013-02-07 10:56:00,80.5,65.8,30.00,East,98,3.0,10.0,61,0.00,,---,0.00,VWS V14.01,2013-02-07 15:56:00,
2013-02-07 11:01:00,81.1,66.4,30.00,East,101,3.0,10.0,61,0.00,,---,0.00,VWS V14.01,2013-02-07 16:01:00,
2013-02-07 11:06:00,81.4,65.2,30.00,ESE,109,2.0,9.0,58,0.00,,---,0.00,VWS V14.01,2013-02-07 16:06:00,
2013-02-07 11:11:00,81.4,65.7,30.00,SE,144,6.0,9.0,59,0.00,,---,0.00,VWS V14.01,2013-02-07 16:11:00,
2013-02-07 11:16:00,81.8,64.6,29.99,East,88,2.0,9.0,56,0.00,,---,0.00,VWS V14.01,2013-02-07 16:16:00,
2013-02-07 11:21:00,82.0,63.7,29.99,ESE,103,3.0,10.0,54,0.00,,---,0.00,VWS V14.01,2013-02-07 16:21:00,
2013-02-07 11:26:00,82.0,65.8,29.99,ESE,108,4.0,10.0,58,0.00,,---,0.00,VWS V14.01,2013-02-07 16:26:00,
2013-02-07 11:31:00,82.6,64.8,29.98,East,84,5.0,10.0,55,0.00,,---,0.00,VWS V14.01,2013-02-07 16:31:00,
2013-02-07 11:36:00,83.4,64.0,29.98,SE,134,2.0,9.0,52,0.00,,---,0.00,VWS V14.01,2013-02-07 16:36:00,
2013-02-07 11:41:00,82.2,63.4,29.98,ESE,109,3.0,9.0,53,0.00,,---,0.00,VWS V14.01,2013-02-07 16:41:00,
2013-02-07 11:46:00,82.0,63.7,29.97,ESE,111,1.0,11.0,54,0.00,,---,0.00,VWS V14.01,2013-02-07 16:46:00,
2013-02-07 11:51:00,82.8,63.9,29.97,ESE,121,2.0,11.0,53,0.00,,---,0.00,VWS V14.01,2013-02-07 16:51:00,
2013-02-07 11:56:00,82.8,64.5,29.97,East,99,6.0,11.0,54,0.00,,---,0.00,VWS V14.01,2013-02-07 16:56:00,
2013-02-07 12:01:00,83.0,64.7,29.97,East,88,3.0,11.0,54,0.00,,---,0.00,VWS V14.01,2013-02-07 17:01:00,
2013-02-07 12:06:00,83.4,64.0,29.97,East,95,0.0,4.0,52,0.00,,---,0.00,VWS V14.01,2013-02-07 17:06:00,
2013-02-07 12:12:00,83.6,64.7,29.97,ESE,106,0.0,6.0,53,0.00,,---,0.00,VWS V14.01,2013-02-07 17:12:00,
2013-02-07 12:17:00,83.4,65.0,29.96,SSE,151,2.0,7.0,54,0.00,,---,0.00,VWS V14.01,2013-02-07 17:17:00,
2013-02-07 12:22:00,84.5,65.5,29.96,SE,136,6.0,7.0,53,0.00,,---,0.00,VWS V14.01,2013-02-07 17:22:00,
2013-02-07 12:27:00,84.3,64.8,29.96,SE,124,3.0,8.0,52,0.00,,---,0.00,VWS V14.01,2013-02-07 17:27:00,
2013-02-07 12:32:00,84.5,64.4,29.94,ESE,104,4.0,9.0,51,0.00,,---,0.00,VWS V14.01,2013-02-07 17:32:00,
2013-02-07 12:37:00,84.3,66.9,29.94,ESE,115,2.0,10.0,56,0.00,,---,0.00,VWS V14.01,2013-02-07 17:37:00,
2013-02-07 12:42:00,85.1,66.1,29.94,SE,132,3.0,10.0,53,0.00,,---,0.00,VWS V14.01,2013-02-07 17:42:00,
2013-02-07 12:47:00,84.7,64.6,29.94,SE,131,3.0,10.0,51,0.00,,---,0.00,VWS V14.01,2013-02-07 17:47:00,
2013-02-07 12:53:00,84.3,63.7,29.94,ESE,110,4.0,10.0,50,0.00,,---,0.00,VWS V14.01,2013-02-07 17:53:00,
2013-02-07 12:58:00,84.3,63.7,29.94,SE,130,8.0,10.0,50,0.00,,---,0.00,VWS V14.01,2013-02-07 17:58:00,
2013-02-07 13:03:00,84.3,63.7,29.92,ESE,117,1.0,2.0,50,0.00,,---,0.00,VWS V14.01,2013-02-07 18:03:00,
2013-02-07 13:08:00,84.5,63.3,29.92,ESE,119,3.0,6.0,49,0.00,,---,0.00,VWS V14.01,2013-02-07 18:08:00,
2013-02-07 13:13:00,84.5,64.4,29.92,ESE,109,0.0,6.0,51,0.00,,---,0.00,VWS V14.01,2013-02-07 18:13:00,
2013-02-07 13:18:00,84.9,61.8,29.92,ESE,122,1.0,9.0,46,0.00,,---,0.00,VWS V14.01,2013-02-07 18:18:00,
2013-02-07 13:23:00,84.7,63.5,29.92,ESE,103,4.0,9.0,49,0.00,,---,0.00,VWS V14.01,2013-02-07 18:23:00,
2013-02-07 13:28:00,85.3,64.0,29.92,ESE,105,5.0,9.0,49,0.00,,---,0.00,VWS V14.01,2013-02-07 18:28:00,
2013-02-07 13:33:00,84.5,63.8,29.91,ESE,104,3.0,5.0,50,0.00,,---,0.00,VWS V14.01,2013-02-07 18:33:00,
2013-02-07 13:39:00,83.6,64.7,29.91,SE,134,2.0,5.0,53,0.00,,---,0.00,VWS V14.01,2013-02-07 18:39:00,
2013-02-07 13:44:00,85.7,63.8,29.91,ESE,121,4.0,5.0,48,0.00,,---,0.00,VWS V14.01,2013-02-07 18:44:00,
2013-02-07 13:49:00,84.9,64.2,29.91,South,170,3.0,5.0,50,0.00,,---,0.00,VWS V14.01,2013-02-07 18:49:00,
2013-02-07 13:54:00,84.3,64.2,29.91,ESE,114,3.0,5.0,51,0.00,,---,0.00,VWS V14.01,2013-02-07 18:54:00,
2013-02-07 13:59:00,85.3,64.0,29.91,ESE,116,3.0,5.0,49,0.00,,---,0.00,VWS V14.01,2013-02-07 18:59:00,
2013-02-07 14:04:00,83.8,65.9,29.91,ESE,113,4.0,4.0,55,0.00,,---,0.00,VWS V14.01,2013-02-07 19:04:00,
2013-02-07 14:09:00,84.3,64.8,29.91,SSE,159,3.0,6.0,52,0.00,,---,0.00,VWS V14.01,2013-02-07 19:09:00,
2013-02-07 14:14:00,82.8,64.5,29.91,ESE,121,2.0,6.0,54,0.00,,---,0.00,VWS V14.01,2013-02-07 19:14:00,
2013-02-07 14:19:00,84.0,65.6,29.91,ESE,105,3.0,6.0,54,0.00,,---,0.00,VWS V14.01,2013-02-07 19:19:00,
2013-02-07 14:24:00,83.8,64.9,29.91,ESE,119,4.0,9.0,53,0.00,,---,0.00,VWS V14.01,2013-02-07 19:24:00,
2013-02-07 14:29:00,83.4,65.6,29.91,ESE,113,4.0,9.0,55,0.00,,---,0.00,VWS V14.01,2013-02-07 19:29:00,
2013-02-07 14:34:00,82.6,64.8,29.90,ESE,117,0.0,2.0,55,0.00,,---,0.00,VWS V14.01,2013-02-07 19:34:00,
2013-02-07 14:39:00,84.1,64.6,29.90,ESE,117,1.0,5.0,52,0.00,,---,0.00,VWS V14.01,2013-02-07 19:39:00,
2013-02-07 14:44:00,84.9,64.2,29.90,SE,137,3.0,5.0,50,0.00,,---,0.00,VWS V14.01,2013-02-07 19:44:00,
2013-02-07 14:49:00,83.4,65.0,29.90,SE,134,0.0,6.0,54,0.00,,---,0.00,VWS V14.01,2013-02-07 19:49:00,
2013-02-07 14:54:00,85.3,64.6,29.90,SE,134,3.0,6.0,50,0.00,,---,0.00,VWS V14.01,2013-02-07 19:54:00,
2013-02-07 15:00:00,85.5,64.8,29.90,SE,139,0.0,6.0,50,0.00,,---,0.00,VWS V14.01,2013-02-07 20:00:00,
2013-02-07 15:05:00,84.7,65.7,29.89,SE,138,0.0,1.0,53,0.00,,---,0.00,VWS V14.01,2013-02-07 20:05:00,
2013-02-07 15:10:00,84.9,65.9,29.89,SE,139,3.0,3.0,53,0.00,,---,0.00,VWS V14.01,2013-02-07 20:10:00,
2013-02-07 15:15:00,83.2,65.4,29.89,SE,145,0.0,5.0,55,0.00,,---,0.00,VWS V14.01,2013-02-07 20:15:00,
2013-02-07 15:20:00,83.2,65.9,29.89,SE,146,1.0,5.0,56,0.00,,---,0.00,VWS V14.01,2013-02-07 20:20:00,
2013-02-07 15:25:00,83.6,66.8,29.89,SE,146,1.0,5.0,57,0.00,,---,0.00,VWS V14.01,2013-02-07 20:25:00,
2013-02-07 15:30:00,82.2,66.0,29.89,ESE,110,2.0,5.0,58,0.00,,---,0.00,VWS V14.01,2013-02-07 20:30:00,
2013-02-07 15:35:00,82.4,66.2,29.88,ESE,111,0.0,2.0,58,0.00,,---,0.00,VWS V14.01,2013-02-07 20:35:00,
2013-02-07 15:40:00,82.4,66.2,29.88,ESE,111,0.0,5.0,58,0.00,,---,0.00,VWS V14.01,2013-02-07 20:40:00,
2013-02-07 15:45:00,83.0,66.7,29.88,ESE,104,2.0,8.0,58,0.00,,---,0.00,VWS V14.01,2013-02-07 20:45:00,
2013-02-07 15:50:00,84.0,66.6,29.88,East,100,4.0,8.0,56,0.00,,---,0.00,VWS V14.01,2013-02-07 20:50:00,
2013-02-07 15:55:00,83.2,66.9,29.88,SE,126,1.0,8.0,58,0.00,,---,0.00,VWS V14.01,2013-02-07 20:55:00,
2013-02-07 16:00:00,82.4,66.7,29.88,SE,126,2.0,8.0,59,0.00,,---,0.00,VWS V14.01,2013-02-07 21:00:00,
2013-02-07 16:05:00,80.9,66.2,29.89,SE,128,2.0,6.0,61,0.00,,---,0.00,VWS V14.01,2013-02-07 21:05:00,
2013-02-07 16:10:00,79.9,66.7,29.89,SE,128,1.0,6.0,64,0.00,,---,0.00,VWS V14.01,2013-02-07 21:10:00,
2013-02-07 16:16:00,79.8,67.0,29.89,SE,128,4.0,6.0,65,0.00,,---,0.00,VWS V14.01,2013-02-07 21:16:00,
2013-02-07 16:21:00,81.1,66.4,29.88,SE,128,1.0,6.0,61,0.00,,---,0.00,VWS V14.01,2013-02-07 21:21:00,
2013-02-07 16:26:00,81.8,66.1,29.88,SE,128,2.0,6.0,59,0.00,,---,0.00,VWS V14.01,2013-02-07 21:26:00,
2013-02-07 16:31:00,82.0,66.8,29.88,SE,139,0.0,6.0,60,0.00,,---,0.00,VWS V14.01,2013-02-07 21:31:00,
2013-02-07 16:36:00,83.0,65.7,29.88,SE,140,3.0,4.0,56,0.00,,---,0.00,VWS V14.01,2013-02-07 21:36:00,
2013-02-07 16:41:00,82.0,65.8,29.88,SE,138,0.0,4.0,58,0.00,,---,0.00,VWS V14.01,2013-02-07 21:41:00,
2013-02-07 16:46:00,81.6,64.9,29.88,South,175,0.0,4.0,57,0.00,,---,0.00,VWS V14.01,2013-02-07 21:46:00,
2013-02-07 16:51:00,81.8,64.6,29.88,South,173,1.0,4.0,56,0.00,,---,0.00,VWS V14.01,2013-02-07 21:51:00,
2013-02-07 16:56:00,81.1,64.9,29.88,South,173,2.0,4.0,58,0.00,,---,0.00,VWS V14.01,2013-02-07 21:56:00,
2013-02-07 17:01:00,80.9,64.8,29.88,South,173,0.0,4.0,58,0.00,,---,0.00,VWS V14.01,2013-02-07 22:01:00,
2013-02-07 17:06:00,81.2,65.0,29.88,South,175,4.0,4.0,58,0.00,,---,0.00,VWS V14.01,2013-02-07 22:06:00,
2013-02-07 17:11:00,81.4,64.7,29.88,South,169,4.0,4.0,57,0.00,,---,0.00,VWS V14.01,2013-02-07 22:11:00,
2013-02-07 17:16:00,81.4,65.7,29.88,SSE,159,3.0,4.0,59,0.00,,---,0.00,VWS V14.01,2013-02-07 22:16:00,
2013-02-07 17:21:00,80.7,65.1,29.88,South,175,0.0,4.0,59,0.00,,---,0.00,VWS V14.01,2013-02-07 22:21:00,
2013-02-07 17:26:00,80.5,66.3,29.88,SE,136,0.0,5.0,62,0.00,,---,0.00,VWS V14.01,2013-02-07 22:26:00,
2013-02-07 17:31:00,79.8,65.6,29.88,SE,134,2.0,5.0,62,0.00,,---,0.00,VWS V14.01,2013-02-07 22:31:00,
2013-02-07 17:37:00,79.4,64.8,29.88,SE,134,1.0,2.0,61,0.00,,---,0.00,VWS V14.01,2013-02-07 22:37:00,
2013-02-07 17:42:00,79.0,64.4,29.88,SE,138,0.0,3.0,61,0.00,,---,0.00,VWS V14.01,2013-02-07 22:42:00,
2013-02-07 17:47:00,78.8,64.7,29.89,SE,138,3.0,3.0,62,0.00,,---,0.00,VWS V14.01,2013-02-07 22:47:00,
2013-02-07 17:52:00,78.5,64.9,29.89,SE,140,1.0,4.0,63,0.00,,---,0.00,VWS V14.01,2013-02-07 22:52:00,
2013-02-07 17:57:00,78.3,64.7,29.89,SE,140,0.0,4.0,63,0.00,,---,0.00,VWS V14.01,2013-02-07 22:57:00,
2013-02-07 18:02:00,77.7,65.9,29.89,SE,140,0.0,4.0,67,0.00,,---,0.00,VWS V14.01,2013-02-07 23:02:00,
2013-02-07 18:07:00,77.2,66.7,29.89,SE,140,2.0,2.0,70,0.00,,---,0.00,VWS V14.01,2013-02-07 23:07:00,
2013-02-07 18:12:00,76.7,66.6,29.89,SE,140,4.0,4.0,71,0.00,,---,0.00,VWS V14.01,2013-02-07 23:12:00,
2013-02-07 18:17:00,76.5,66.4,29.90,SE,140,0.0,4.0,71,0.00,,---,0.00,VWS V14.01,2013-02-07 23:17:00,
2013-02-07 18:22:00,76.1,66.4,29.90,SE,140,0.0,4.0,72,0.00,,---,0.00,VWS V14.01,2013-02-07 23:22:00,
2013-02-07 18:27:00,75.8,66.1,29.90,SE,140,1.0,4.0,72,0.00,,---,0.00,VWS V14.01,2013-02-07 23:27:00,
2013-02-07 18:32:00,75.6,65.9,29.90,SE,140,0.0,4.0,72,0.00,,---,0.00,VWS V14.01,2013-02-07 23:32:00,
2013-02-07 18:37:00,75.4,64.9,29.90,SE,140,0.0,0.0,70,0.00,,---,0.00,VWS V14.01,2013-02-07 23:37:00,
2013-02-07 18:42:00,75.3,64.8,29.90,SE,140,0.0,0.0,70,0.00,,---,0.00,VWS V14.01,2013-02-07 23:42:00,
2013-02-07 18:47:00,75.3,64.8,29.90,SE,140,1.0,1.0,70,0.00,,---,0.00,VWS V14.01,2013-02-07 23:47:00,
2013-02-07 18:52:00,75.3,64.4,29.90,SE,140,0.0,1.0,69,0.00,,---,0.00,VWS V14.01,2013-02-07 23:52:00,
2013-02-07 18:57:00,75.3,64.0,29.90,SE,140,2.0,2.0,68,0.00,,---,0.00,VWS V14.01,2013-02-07 23:57:00,
2013-02-07 19:02:00,75.3,64.0,29.91,SE,140,0.0,2.0,68,0.00,,---,0.00,VWS V14.01,2013-02-08 00:02:00,
2013-02-07 19:07:00,75.1,63.8,29.91,SE,140,0.0,2.0,68,0.00,,---,0.00,VWS V14.01,2013-02-08 00:07:00,
2013-02-07 19:12:00,74.9,63.6,29.91,SE,140,0.0,2.0,68,0.00,,---,0.00,VWS V14.01,2013-02-08 00:12:00,
2013-02-07 19:18:00,74.7,63.9,29.92,SE,140,0.0,2.0,69,0.00,,---,0.00,VWS V14.01,2013-02-08 00:18:00,
2013-02-07 19:23:00,74.7,63.5,29.92,SE,140,0.0,2.0,68,0.00,,---,0.00,VWS V14.01,2013-02-08 00:23:00,
2013-02-07 19:28:00,74.6,63.8,29.92,SE,140,1.0,2.0,69,0.00,,---,0.00,VWS V14.01,2013-02-08 00:28:00,
2013-02-07 19:33:00,74.6,64.2,29.92,SE,140,0.0,0.0,70,0.00,,---,0.00,VWS V14.01,2013-02-08 00:33:00,
2013-02-07 19:38:00,74.2,63.8,29.92,SE,140,0.0,0.0,70,0.00,,---,0.00,VWS V14.01,2013-02-08 00:38:00,
2013-02-07 19:43:00,73.9,63.9,29.92,SE,140,0.0,1.0,71,0.00,,---,0.00,VWS V14.01,2013-02-08 00:43:00,
2013-02-07 19:48:00,73.9,63.9,29.93,SE,140,0.0,2.0,71,0.00,,---,0.00,VWS V14.01,2013-02-08 00:48:00,
2013-02-07 19:53:00,73.7,63.7,29.93,SE,140,0.0,2.0,71,0.00,,---,0.00,VWS V14.01,2013-02-08 00:53:00,
2013-02-07 19:58:00,73.3,63.7,29.93,SE,140,0.0,2.0,72,0.00,,---,0.00,VWS V14.01,2013-02-08 00:58:00,
2013-02-07 20:03:00,73.3,63.7,29.93,SE,140,0.0,0.0,72,0.00,,---,0.00,VWS V14.01,2013-02-08 01:03:00,
2013-02-07 20:09:00,73.0,63.8,29.93,SE,140,0.0,0.0,73,0.00,,---,0.00,VWS V14.01,2013-02-08 01:09:00,
2013-02-07 20:14:00,72.8,63.7,29.93,SE,140,0.0,0.0,73,0.00,,---,0.00,VWS V14.01,2013-02-08 01:14:00,
2013-02-07 20:19:00,72.7,63.9,29.93,SE,140,0.0,0.0,74,0.00,,---,0.00,VWS V14.01,2013-02-08 01:19:00,
2013-02-07 20:24:00,72.5,64.1,29.93,SE,140,0.0,0.0,75,0.00,,---,0.00,VWS V14.01,2013-02-08 01:24:00,
2013-02-07 20:29:00,72.1,63.8,29.93,SE,140,0.0,0.0,75,0.00,,---,0.00,VWS V14.01,2013-02-08 01:29:00,
2013-02-07 20:34:00,72.0,63.7,29.93,SE,140,0.0,0.0,75,0.00,,---,0.00,VWS V14.01,2013-02-08 01:34:00,
2013-02-07 20:39:00,71.8,63.8,29.93,SE,140,0.0,0.0,76,0.00,,---,0.00,VWS V14.01,2013-02-08 01:39:00,
2013-02-07 20:44:00,71.6,64.0,29.93,SE,140,0.0,1.0,77,0.00,,---,0.00,VWS V14.01,2013-02-08 01:44:00,
2013-02-07 20:49:00,71.6,64.4,29.94,SE,140,0.0,1.0,78,0.00,,---,0.00,VWS V14.01,2013-02-08 01:49:00,
2013-02-07 20:54:00,71.8,64.2,29.94,SE,140,0.0,1.0,77,0.00,,---,0.00,VWS V14.01,2013-02-08 01:54:00,
2013-02-07 20:59:00,71.6,64.4,29.94,SE,140,0.0,1.0,78,0.00,,---,0.00,VWS V14.01,2013-02-08 01:59:00,
2013-02-07 21:04:00,71.5,64.7,29.94,SE,140,0.0,0.0,79,0.00,,---,0.00,VWS V14.01,2013-02-08 02:04:00,
2013-02-07 21:09:00,71.1,64.6,29.94,SE,140,0.0,0.0,80,0.00,,---,0.00,VWS V14.01,2013-02-08 02:09:00,
2013-02-07 21:14:00,70.9,64.4,29.94,SE,140,0.0,1.0,80,0.00,,---,0.00,VWS V14.01,2013-02-08 02:14:00,
2013-02-07 21:19:00,70.8,65.0,29.94,SE,140,0.0,1.0,82,0.00,,---,0.00,VWS V14.01,2013-02-08 02:19:00,
2013-02-07 21:24:00,70.6,64.8,29.94,SE,140,0.0,1.0,82,0.00,,---,0.00,VWS V14.01,2013-02-08 02:24:00,
2013-02-07 21:29:00,70.6,64.8,29.94,SE,140,0.0,1.0,82,0.00,,---,0.00,VWS V14.01,2013-02-08 02:29:00,
2013-02-07 21:34:00,70.3,64.9,29.94,SE,140,0.0,1.0,83,0.00,,---,0.00,VWS V14.01,2013-02-08 02:34:00,
2013-02-07 21:40:00,69.9,64.8,29.94,SE,140,0.0,1.0,84,0.00,,---,0.00,VWS V14.01,2013-02-08 02:40:00,
2013-02-07 21:45:00,69.9,64.8,29.94,SE,140,0.0,1.0,84,0.00,,---,0.00,VWS V14.01,2013-02-08 02:45:00,
2013-02-07 21:50:00,69.6,64.9,29.94,SE,140,0.0,1.0,85,0.00,,---,0.00,VWS V14.01,2013-02-08 02:50:00,
2013-02-07 21:55:00,69.8,64.8,29.94,SE,140,1.0,1.0,84,0.00,,---,0.00,VWS V14.01,2013-02-08 02:55:00,
2013-02-07 22:00:00,69.8,64.8,29.94,SE,140,0.0,2.0,84,0.00,,---,0.00,VWS V14.01,2013-02-08 03:00:00,
2013-02-07 22:05:00,69.6,64.9,29.93,SE,140,0.0,3.0,85,0.00,,---,0.00,VWS V14.01,2013-02-08 03:05:00,
2013-02-07 22:10:00,69.6,65.2,29.93,SE,140,0.0,3.0,86,0.00,,---,0.00,VWS V14.01,2013-02-08 03:10:00,
2013-02-07 22:15:00,69.8,65.4,29.93,SE,140,0.0,3.0,86,0.00,,---,0.00,VWS V14.01,2013-02-08 03:15:00,
2013-02-07 22:20:00,69.8,65.4,29.93,SE,140,2.0,3.0,86,0.00,,---,0.00,VWS V14.01,2013-02-08 03:20:00,
2013-02-07 22:25:00,69.8,65.4,29.93,SE,140,0.0,3.0,86,0.00,,---,0.00,VWS V14.01,2013-02-08 03:25:00,
2013-02-07 22:30:00,69.8,65.4,29.93,SE,140,0.0,3.0,86,0.00,,---,0.00,VWS V14.01,2013-02-08 03:30:00,
2013-02-07 22:35:00,69.8,65.8,29.93,SE,140,2.0,2.0,87,0.00,,---,0.00,VWS V14.01,2013-02-08 03:35:00,
2013-02-07 22:40:00,69.6,65.9,29.93,SE,140,1.0,2.0,88,0.00,,---,0.00,VWS V14.01,2013-02-08 03:40:00,
2013-02-07 22:46:00,69.6,65.9,29.93,SE,140,0.0,2.0,88,0.00,,---,0.00,VWS V14.01,2013-02-08 03:46:00,
2013-02-07 22:51:00,69.8,66.4,29.92,SE,140,0.0,3.0,89,0.00,,---,0.00,VWS V14.01,2013-02-08 03:51:00,
2013-02-07 22:56:00,69.6,65.9,29.92,SE,140,0.0,3.0,88,0.00,,---,0.00,VWS V14.01,2013-02-08 03:56:00,
2013-02-07 23:01:00,69.4,66.0,29.92,SE,140,2.0,3.0,89,0.00,,---,0.00,VWS V14.01,2013-02-08 04:01:00,
2013-02-07 23:06:00,69.4,66.3,29.92,SE,140,0.0,0.0,90,0.00,,---,0.00,VWS V14.01,2013-02-08 04:06:00,
2013-02-07 23:11:00,69.3,66.2,29.92,SE,140,1.0,1.0,90,0.00,,---,0.00,VWS V14.01,2013-02-08 04:11:00,
2013-02-07 23:16:00,69.4,66.3,29.92,SE,140,0.0,3.0,90,0.00,,---,0.00,VWS V14.01,2013-02-08 04:16:00,
2013-02-07 23:21:00,69.3,66.2,29.92,SE,140,0.0,3.0,90,0.00,,---,0.00,VWS V14.01,2013-02-08 04:21:00,
2013-02-07 23:26:00,69.3,66.6,29.92,SE,140,0.0,3.0,91,0.00,,---,0.00,VWS V14.01,2013-02-08 04:26:00,
2013-02-07 23:31:00,69.1,66.4,29.91,SE,140,0.0,3.0,91,0.00,,---,0.00,VWS V14.01,2013-02-08 04:31:00,
2013-02-07 23:36:00,68.9,66.5,29.91,SE,140,0.0,0.0,92,0.00,,---,0.00,VWS V14.01,2013-02-08 04:36:00,
2013-02-07 23:41:00,68.9,66.8,29.91,SE,140,0.0,2.0,93,0.00,,---,0.00,VWS V14.01,2013-02-08 04:41:00,
2013-02-07 23:46:00,68.9,66.5,29.90,SE,140,3.0,3.0,92,0.00,,---,0.00,VWS V14.01,2013-02-08 04:46:00,
2013-02-07 23:51:00,68.8,66.7,29.90,SE,140,0.0,3.0,93,0.00,,---,0.00,VWS V14.01,2013-02-08 04:51:00,
2013-02-07 23:56:00,68.8,66.7,29.90,SE,140,0.0,3.0,93,0.00,,---,0.00,VWS V14.01,2013-02-08 04:56:00,